Starlink 11565

operational
NORAD ID: 62912 Int'l Des: 2025-027 Owner: SPXS Country: US Constellation: starlink
LEOCIRCULAR

关于 Starlink 11565

正在加载描述...

实时位置

正在加载3D地球...

即将过境

高度历史

Altitude vs Time

uPlot chart will show altitude changes over time

两行轨道根数

1 62912U 25027F 25350.43974103 .00268885 00000-0 20251-2 0 9991
2 62912 42.9993 129.0588 0001792 265.3681 94.6982 15.70919663 50067
Epoch: Dec 16, 2025 • Age: 24 hours

当前状态

高度 359.9 km
速度 7.69 km/s
星下点 -24.27°S, 154.22°W
发射日期 Feb 8, 2025
运行时间 0.8 years
类型 internet

技术详情

分类 Payload
质量 960.00 kg
干质量 910.00 kg
总质量 960.00 kg
长度 0.30 m
直径 4.10 m
跨度 29.00 m
形状 Box + pan
制造商 SPXS
平台类型 Starlink V2MD
阶段状态 In Orbit
所有者/国家 SPXS/US

大型星座

Loading constellations...